Location: Waco, TX
(31.5480°N, 97.1670°W)
Time: 15:17:46
(UTC-05:00)

ISS - Pass Details

Date: 14 October 2018
Orbit: 403 x 408 km, 51.6° (Epoch: 17 October)

Event Time Altitude Azimuth Distance (km) Brightness Sun altitude
Rises 18:14:33 0° 330° (NNW) 2,332 0.2 8.2°
Reaches altitude 10° 18:17:08 10° 351° (N) 1,469 -1.0 7.6°
Maximum altitude 18:19:26 17° 35° (NE) 1,103 -2.0 7.1°
Drops below altitude 10° 18:21:43 10° 80° (E) 1,464 -1.6 6.7°
Sets 18:24:17 0° 101° (E) 2,321 -0.6 6.1°
